Location: Santa Maria di Sala
(45.5070°N, 12.0300°E)
Time: 22:02:31
(UTC+01:00)

STRAND 1 - Visible Passes

Search period start: 26 February 2024 00:00
Search period end: 07 March 2024 00:00
Orbit: 766 x 778 km, 98.4° (Epoch: 26 February)

Date Brightness Start Highest point End Pass type
(mag) Time Alt. Az. Time Alt. Az. Time Alt. Az.
26 Feb ? 05:05:34 10° SE 05:10:23 42° ENE 05:15:12 10° N visible
26 Feb ? 18:51:53 10° NNE 18:57:03 88° ESE 19:02:10 10° SSW visible
26 Feb ? 20:32:45 10° NNW 20:35:28 15° WNW 20:38:10 10° W visible
27 Feb ? 04:31:59 10° ESE 04:35:54 22° ENE 04:39:48 10° NNE visible
27 Feb ? 06:09:37 10° S 06:14:39 55° W 06:19:43 10° NNW visible
27 Feb ? 19:56:52 10° N 20:01:06 27° WNW 20:05:19 10° WSW visible
28 Feb ? 03:59:43 10° ENE 04:01:36 12° NE 04:03:28 10° NNE visible
28 Feb ? 05:34:43 10° SSE 05:39:50 75° ENE 05:45:00 10° N visible
28 Feb ? 19:21:36 10° N 19:26:34 51° WNW 19:31:29 10° SW visible
29 Feb ? 05:00:30 10° SE 05:05:12 38° ENE 05:09:56 10° N visible
29 Feb ? 18:46:41 10° NNE 18:51:51 80° ESE 18:56:57 10° S visible
29 Feb ? 20:27:19 10° NNW 20:30:20 16° WNW 20:33:19 10° W visible
01 Mar ? 04:27:02 10° ESE 04:30:45 20° ENE 04:34:28 10° NNE visible
01 Mar ? 06:04:22 10° S 06:09:26 61° W 06:14:33 10° NNW visible
01 Mar ? 19:51:34 10° N 19:55:56 29° WNW 20:00:18 10° WSW visible
02 Mar ? 03:55:14 10° ENE 03:56:28 11° NE 03:57:41 10° NE visible
02 Mar ? 05:29:33 10° SSE 05:34:39 68° ENE 05:39:46 10° N visible
02 Mar ? 19:16:21 10° N 19:21:22 57° WNW 19:26:21 10° SSW visible
03 Mar ? 04:55:25 10° SE 05:00:02 34° ENE 05:04:39 10° N visible
03 Mar ? 18:41:29 10° NNE 18:46:38 73° ESE 18:51:42 10° S visible
03 Mar ? 20:21:54 10° NNW 20:25:11 17° WNW 20:28:26 10° W visible
04 Mar ? 04:22:06 10° ESE 04:25:36 19° ENE 04:29:05 10° NNE visible
04 Mar ? 05:59:06 10° S 06:04:12 67° WSW 06:09:21 10° NNW visible
04 Mar ? 19:46:15 10° N 19:50:45 32° WNW 19:55:14 10° SW visible
05 Mar ? 05:24:22 10° SSE 05:29:26 61° ENE 05:34:31 10° N visible
05 Mar ? 19:11:06 10° N 19:16:10 63° WNW 19:21:11 10° SSW visible
06 Mar ? 04:50:21 10° SE 04:54:51 31° ENE 04:59:21 10° N visible
06 Mar ? 18:36:17 10° NNE 18:41:23 65° ESE 18:46:26 10° S visible
06 Mar ? 20:16:30 10° NNW 20:20:00 19° WNW 20:23:30 10° WSW visible
